Location: Binningen
(47.7924°N, 8.7261°E)
Time: 18:34:47
(UTC+00:00)

USA 276 - Pass Details

Date: 17 May 2021
Orbit: 383 x 389 km, 50.0° (Epoch: 01 June)

Event Time Altitude Azimuth Distance (km) Brightness Sun altitude
Exits shadow 23:40:19 21° 69° (ENE) 931 4.2 -22.5°
Drops below altitude 10° 23:41:32 10° 72° (ENE) 1,417 5.2 -22.5°
Sets 23:43:36 0° 74° (ENE) 2,271 6.2 -22.5°
